Weather History for Janesville, WI

Change the Weather History Date:

Sunday, November 18, 2012

  Actual Average Record
Temperature  
Mean Temperature 42 °F -  
Max Temperature 55 °F 46 °F 68 °F (1999)
Min Temperature 30 °F 30 °F 14 °F (1989)
Degree Days  
Heating Degree Days 22    
Moisture  
Dew Point 31 °F    
Average Humidity 70    
Maximum Humidity 87    
Minimum Humidity 36    
Precipitation  
Precipitation 0.00 in - - ()
Sea Level Pressure  
Sea Level Pressure 30.35 in    
Wind  
Wind Speed 4 mph (SSE)    
Max Wind Speed 14 mph    
Max Gust Speed 17 mph    
Visibility 8 miles    
Events      
Averages and records for this station are not official NWS values.
T = Trace of Precipitation, MM = Missing Value Source: NWS Daily Summary

Daily Weather History Graph

Daily Weather History Graph

Search for Another Location

Airport:

Trip Planner

Search our weather history database for the weather conditions in past years. The results will help you decide how hot, cold, wet, or windy it might be!

Date:

Astronomy

Nov. 18, 2012 Rise Set
Actual Time 6:51 AM CST 4:30 PM CST
Civil Twilight 6:21 AM CST 5:01 PM CST
Nautical Twilight 5:46 AM CST 5:35 PM CST
Astronomical Twilight 5:13 AM CST 6:09 PM CST
Moon 11:17 AM CST (11/18) 9:52 PM CST (11/18)
Length of Visible Light 10h 39m
Length of Day
9h 38m
Waxing Crescent, 30% of the Moon is Illuminated
Nov 18
Waxing Crescent
Nov 20
First Quarter
Nov 28
Full
Dec 6
Last Quarter
Dec 13
New

Hourly Weather History & Observations

Time (CST) Temp. Windchill Dew Point Humidity Pressure Visibility Wind Dir Wind Speed Gust Speed Precip Events Conditions
12:15 AM 33.8 °F 30.8 °F 30.2 °F 87% 30.41 in 7.0 mi SE 3.5 mph - N/A   Clear
12:35 AM 33.8 °F - 30.2 °F 87% 30.41 in 7.0 mi Calm Calm - N/A   Clear
12:55 AM 35.6 °F - 30.2 °F 81% 30.41 in 7.0 mi Calm Calm - N/A   Clear
1:15 AM 35.6 °F 32.8 °F 30.2 °F 81% 30.41 in 7.0 mi SE 3.5 mph - N/A   Clear
1:35 AM 35.6 °F - 30.2 °F 81% 30.41 in 7.0 mi Calm Calm - N/A   Clear
1:55 AM 32.0 °F - 28.4 °F 87% 30.41 in 5.0 mi Calm Calm - N/A   Haze
2:15 AM 33.8 °F - 30.2 °F 87% 30.41 in 7.0 mi Calm Calm - N/A   Clear
2:55 AM 33.8 °F - 30.2 °F 87% 30.40 in 5.0 mi Calm Calm - N/A   Haze
3:15 AM 32.0 °F - 28.4 °F 87% 30.39 in 7.0 mi Calm Calm - N/A   Clear
3:35 AM 33.8 °F - 30.2 °F 87% 30.39 in 7.0 mi Calm Calm - N/A   Clear
3:55 AM 32.0 °F 28.7 °F 28.4 °F 87% 30.39 in 5.0 mi SE 3.5 mph - N/A   Haze
4:15 AM 32.0 °F - 28.4 °F 87% 30.39 in 5.0 mi Calm Calm - N/A   Clear
4:35 AM 32.0 °F - 28.4 °F 87% 30.39 in 5.0 mi Calm Calm - N/A   Haze
5:45 AM 32.0 °F - 28.4 °F 87% 30.39 in 6.0 mi Calm Calm - N/A   Clear
6:52 AM 30.2 °F 25.4 °F 26.6 °F 86% 30.30 in 6.0 mi SE 4.6 mph - N/A   Clear
7:45 AM 33.8 °F 29.6 °F 30.2 °F 87% 30.39 in 6.0 mi SE 4.6 mph - N/A   Haze
8:45 AM 41.0 °F 37.1 °F 33.8 °F 76% 30.39 in 6.0 mi SSE 5.8 mph - N/A   Haze
9:50 AM 46.4 °F 42.4 °F 33.8 °F 62% 30.31 in 6.0 mi SSE 8.1 mph - N/A   Haze
10:45 AM 51.8 °F - 32.0 °F 47% 30.37 in 6.0 mi SSE 8.1 mph - N/A   Haze
11:45 AM 53.6 °F - 30.2 °F 41% 30.34 in 6.0 mi SSE 11.5 mph - N/A   Haze
1:45 PM 55.4 °F - 28.4 °F 36% 30.32 in 6.0 mi South 13.8 mph - N/A   Haze
2:45 PM 53.6 °F - 28.4 °F 38% 30.31 in 6.0 mi SSE 11.5 mph 17.3 mph N/A   Haze
3:45 PM 51.8 °F - 32.0 °F 47% 30.31 in 6.0 mi SSE 9.2 mph - N/A   Haze
4:45 PM 44.6 °F 40.7 °F 32.0 °F 61% 30.32 in 10.0 mi SE 6.9 mph - N/A   Clear
5:45 PM 42.8 °F 38.6 °F 33.8 °F 70% 30.32 in 10.0 mi SE 6.9 mph - N/A   Clear
7:45 PM 41.0 °F 36.4 °F 33.8 °F 76% 30.31 in 10.0 mi SE 6.9 mph - N/A   Clear
8:15 PM 41.0 °F 36.4 °F 32.0 °F 70% 30.31 in 10.0 mi SSE 6.9 mph - N/A   Clear
8:35 PM 44.6 °F 40.7 °F 32.0 °F 61% 30.31 in 10.0 mi SSE 6.9 mph - N/A   Clear
8:45 PM 44.6 °F 40.7 °F 33.8 °F 66% 30.31 in 10.0 mi SSE 6.9 mph - N/A   Clear
8:55 PM 44.6 °F 40.2 °F 32.0 °F 61% 30.30 in 10.0 mi SE 8.1 mph - N/A   Clear
9:15 PM 44.6 °F 40.7 °F 32.0 °F 61% 30.30 in 10.0 mi SE 6.9 mph - N/A   Clear
9:35 PM 44.6 °F 40.7 °F 32.0 °F 61% 30.29 in 10.0 mi SSE 6.9 mph - N/A   Clear
9:55 PM 44.6 °F 40.7 °F 32.0 °F 61% 30.29 in 10.0 mi SSE 6.9 mph - N/A   Clear
10:15 PM 46.4 °F 42.9 °F 32.0 °F 57% 30.29 in 10.0 mi South 6.9 mph - N/A   Clear
10:35 PM 46.4 °F 42.9 °F 32.0 °F 57% 30.29 in 10.0 mi South 6.9 mph - N/A   Clear
10:55 PM 46.4 °F 42.4 °F 32.0 °F 57% 30.29 in 10.0 mi SSE 8.1 mph - N/A   Clear
11:15 PM 46.4 °F 42.4 °F 32.0 °F 57% 30.28 in 10.0 mi South 8.1 mph - N/A   Clear
11:55 PM 44.6 °F 42.2 °F 32.0 °F 61% 30.28 in 10.0 mi SSE 4.6 mph - N/A   Clear